• Join FlightAware (Why Join?)
  • Login
  • US Flag GB Flag 
09:27 EDT


 

Airport Tracker/Info


-or-


 

Live Flight TrackerFlight Track Log ✈ N449ND ✈ 13-Jan-2014 ✈ KFPR - KFPR

Flight Track Log - Related Links

Times and Time Zones

All times are in EST time to prevent confusion due to time zone crossing. See the N449ND flight status page for this flight to view local times or setup timezone preferences in your user account.

Time Position Orientation Groundspeed Altitude Reporting Facility
EST Latitude Longitude Course Direction KTS MPH feet Rate Location/Type
15:36 27.4986 -80.3431 84° East 94 108 900  Level Miami Center
15:37 27.5014 -80.3150 84° East 85 98 1,500 540 Climbing Miami Center
15:38 27.5042 -80.2869 84° East 85 98 2,000 480 Climbing Miami Center
15:39 27.5192 -80.2664 51° Northeast 85 98 2,500 480 Climbing Miami Center
15:40 27.5364 -80.2433 50° Northeast 102 117 3,000 240 Climbing Miami Center
15:41 27.5603 -80.2114 50° Northeast 112 129 3,000  Level Miami Center
15:42 27.5828 -80.2214 338° Northwest 84 97 3,000  Level Miami Center
15:43 27.5969 -80.2500 299° West 92 106 3,000  Level Miami Center
15:44 27.6067 -80.2806 290° West 111 128 3,000  Level Miami Center
15:45 27.6164 -80.3092 291° West 111 128 3,000  Level Miami Center
15:46 27.6300 -80.3422 295° West 111 128 3,000  Level Miami Center
15:47 27.6314 -80.3706 273° West 104 120 3,100  Climbing Miami Center
15:48 27.6083 -80.3839 207° Southwest 82 94 3,100 -60 Level Miami Center
15:49 27.5911 -80.4044 227° Southwest 98 113 3,000 -60 Descending Miami Center
15:50 27.5800 -80.4297 244° Southwest 98 113 3,000  Level Miami Center
15:51 27.5708 -80.4622 252° West 98 113 3,000  Level Miami Center
15:52 27.5617 -80.4900 250° West 98 113 3,000 -60 Level Miami Center
15:53 27.5589 -80.5206 264° West 98 113 2,900  Descending Miami Center
15:54 27.5686 -80.5464 293° West 98 113 3,000 60 Climbing Miami Center
15:55 27.5889 -80.5753 308° West 105 121 3,100  Climbing Miami Center
15:56 27.6133 -80.5947 325° Northwest 105 121 3,100 -120 Level Miami Center
15:57 27.6400 -80.6097 334° Northwest 110 127 2,900 -60 Descending Miami Center
15:58 27.6628 -80.6200 338° Northwest 105 121 3,000 60 Climbing Miami Center
15:59 27.6961 -80.6211 358° North 105 121 3,100 -240 Climbing Miami Center
16:00 27.7236 -80.6056 27° Northeast 95 109 2,600 -600 Descending Miami Center
16:01 27.7097 -80.5792 121° Southeast 69 79 1,900 -660 Descending Miami Center
16:02 27.6981 -80.5508 115° Southeast 80 92 1,300 -360 Descending Miami Center
16:03 27.6903 -80.5269 110° East 91 105 1,200 -60 Descending Miami Center
16:04 27.6806 -80.5008 113° Southeast 91 105 1,200 -60 Level Miami Center
16:05 27.6728 -80.4703 106° East 91 105 1,100 -420 Descending Miami Center
16:06 27.6631 -80.4464 115° Southeast 91 105 400 -360 Descending Miami Center
16:07 27.6572 -80.4275 109° East 86 99 400 1,260 Level Miami Center
16:08 27.6536 -80.4039 100° East 76 87 3,000 600 Climbing Miami Center
16:09 27.6708 -80.3811 50° Northeast 71 82 1,700  Descending Miami Center
16:10 27.6903 -80.3581 46° Northeast 88 101 3,000 480 Climbing Miami Center
16:11 27.7075 -80.3353 49° Northeast 88 101 2,700  Descending Miami Center
16:12 27.7186 -80.3075 66° East 94 108 3,000 120 Climbing Miami Center
16:13 27.6958 -80.2972 158° South 64 74 3,000  Level Miami Center
16:14 27.6669 -80.2894 167° South 97 112 3,000  Level Miami Center
16:15 27.6436 -80.3006 203° Southwest 103 119 3,000  Level Miami Center
16:16 27.6286 -80.3233 233° Southwest 98 113 3,100  Climbing Miami Center
16:17 27.6175 -80.3442 239° Southwest 103 119 3,100  Level Miami Center
16:18 27.6003 -80.3694 232° Southwest 103 119 3,100 -60 Level Miami Center
16:19 27.5850 -80.3972 238° Southwest 98 113 3,000  Descending Miami Center
16:20 27.5717 -80.4225 239° Southwest 98 113 3,100  Climbing Miami Center
16:21 27.5586 -80.4503 242° Southwest 98 113 3,000 -60 Descending Miami Center
16:22 27.5433 -80.4708 230° Southwest 98 113 3,000  Level Miami Center
16:23 27.5261 -80.4983 235° Southwest 104 120 3,000  Level Miami Center
16:24 27.5108 -80.5189 230° Southwest 104 120 3,000  Level Miami Center
16:25 27.4978 -80.5442 240° Southwest 99 114 3,000  Level Miami Center
16:26 27.4825 -80.5672 233° Southwest 99 114 3,100  Climbing Miami Center
16:27 27.4694 -80.5925 240° Southwest 99 114 3,000  Descending Miami Center
16:28 27.4500 -80.6200 231° Southwest 99 114 3,100  Climbing Miami Center
16:29 27.4367 -80.6453 239° Southwest 99 114 3,000 -60 Descending Miami Center
16:30 27.4256 -80.6731 246° West 99 114 3,000  Level Miami Center
16:31 27.4083 -80.6933 226° Southwest 99 114 3,100  Climbing Miami Center
16:32 27.3889 -80.7139 223° Southwest 99 114 3,000 -420 Descending Miami Center
16:33 27.3694 -80.7414 231° Southwest 99 114 2,300 -660 Descending Miami Center
16:34 27.3500 -80.7617 223° Southwest 104 120 1,700 -300 Descending Miami Center
16:35 27.3286 -80.7797 217° Southwest 98 113 1,700 -120 Level Miami Center
16:36 27.3114 -80.8047 232° Southwest 98 113 1,500 -360 Descending Miami Center
16:37 27.2983 -80.8183 223° Southwest 82 94 1,000 -480 Descending Miami Center
16:38 27.2792 -80.8386 223° Southwest 89 102 600 -480 Descending Miami Center
16:39 27.2722 -80.8572 247° West 81 93 100 -180 Descending Miami Center
16:40 27.2558 -80.8447 146° Southeast 64 74 300 1,440 Climbing Miami Center
16:41 27.2450 -80.8631 236° Southwest 69 79 3,000 840 Climbing Miami Center
16:42 27.2322 -80.8744 218° Southwest 74 85 2,000 -540 Descending Miami Center
16:43 27.2128 -80.8994 229° Southwest 97 112 2,000  Level Miami Center
16:44 27.2006 -80.8828 130° Southeast 47 54 2,000 180 Level Miami Center
16:45 27.2100 -80.8503 72° East 71 82 2,400 420 Climbing Miami Center
16:46 27.2147 -80.8247 78° East 91 105 2,900 300 Climbing Miami Center
16:47 27.2219 -80.7878 78° East 103 119 3,100  Climbing Miami Center
16:48 27.2433 -80.7675 40° Northeast 98 113 3,000 -60 Descending Miami Center
16:49 27.2792 -80.7617 North 104 120 3,000  Level Miami Center
16:50 27.3083 -80.7603 North 118 136 3,000  Level Miami Center
16:52 27.3775 -80.7486 234° Southwest 123 142 3,100  Climbing Miami Center
16:53 27.4094 -80.7308 26° Northeast 123 142 3,000 -60 Descending Miami Center
16:54 27.4389 -80.7178 21° North 123 142 3,000  Level Miami Center
16:55 27.4686 -80.7047 21° North 118 136 3,000  Level Miami Center
16:56 27.4942 -80.6800 41° Northeast 111 128 3,100 -120 Climbing Miami Center
16:57 27.5014 -80.6497 75° East 99 114 2,800 -360 Descending Miami Center
16:58 27.4978 -80.6192 98° East 99 114 2,400 -360 Descending Miami Center
16:59 27.4986 -80.5911 88° East 99 114 2,100 -300 Descending Miami Center
17:00 27.4994 -80.5561 88° East 105 121 1,800 -120 Descending Miami Center
17:01 27.4983 -80.5186 92° East 105 121 1,900  Climbing Miami Center
17:02 27.4950 -80.4881 97° East 105 121 1,900 -120 Level Miami Center
17:03 27.4981 -80.4531 84° East 105 121 1,700 -420 Descending Miami Center
17:04 27.4986 -80.4272 89° East 100 115 1,100 -660 Descending Miami Center
17:05 27.4972 -80.4014 93° East 93 107 400 -480 Descending Miami Center
17:06 27.4956 -80.3756 94° East 80 92 200 -240 Descending Miami Center
17:08 27.5177 -80.3666 20° North  Level FlightAware Approximate
17:15 27.5844 -80.3600 237° Southwest  Level FlightAware Approximate
17:16 27.5753 -80.3755 236° Southwest  Level FlightAware Approximate
17:17 27.5662 -80.3909 236° Southwest  Level FlightAware Approximate
17:18 27.5571 -80.4064 236° Southwest  Level FlightAware Approximate
17:19 27.5480 -80.4219 236° Southwest  Level FlightAware Approximate
17:20 27.5389 -80.4373 236° Southwest  Level FlightAware Approximate
17:21 27.5299 -80.4528 236° Southwest  Level FlightAware Approximate
17:22 27.5208 -80.4682 236° Southwest  Level FlightAware Approximate
17:23 27.5117 -80.4837 236° Southwest  Level FlightAware Approximate
17:24 27.5026 -80.4992 236° Southwest  Level FlightAware Approximate
17:25 27.4935 -80.5146 236° Southwest  Level FlightAware Approximate
17:26 27.4844 -80.5301 236° Southwest  Level FlightAware Approximate
17:27 27.4753 -80.5455 236° Southwest  Level FlightAware Approximate
17:28 27.4662 -80.5610 236° Southwest  Level FlightAware Approximate
17:29 27.4571 -80.5764 236° Southwest  Level FlightAware Approximate
17:30 27.4480 -80.5919 236° Southwest  Level FlightAware Approximate
17:31 27.4389 -80.6073 236° Southwest  Level FlightAware Approximate
17:32 27.4302 -80.6230 241° Southwest  Level FlightAware Approximate
17:33 27.4221 -80.6392 241° Southwest  Level FlightAware Approximate
17:34 27.4140 -80.6553 241° Southwest  Level FlightAware Approximate
17:35 27.4059 -80.6715 241° Southwest  Level FlightAware Approximate
17:36 27.3967 -80.6866 222° Southwest  Level FlightAware Approximate